Mason, MI

12:14 AM EDT on May 29, 2017 (GMT -0400)
Mason Jewett

Weather History for KTEW - October, 2013

Change the Weather History Date:

Thursday, October 24, 2013

  Actual Average (KLAN) Record (KLAN)
Temperature  
Mean Temperature 40 °F -  
Max Temperature 47 °F 58 °F 84 °F (1963)
Min Temperature 32 °F 39 °F 15 °F (1869)
Degree Days  
Heating Degree Days 26    
Moisture  
Dew Point 31 °F    
Average Humidity 81    
Maximum Humidity 92    
Minimum Humidity 46    
Precipitation  
Precipitation 0.00 in - - ()
Sea Level Pressure  
Sea Level Pressure 30.03 in    
Wind  
Wind Speed 5 mph (West)    
Max Wind Speed 13 mph    
Max Gust Speed 18 mph    
Visibility 10 miles    
Events Rain    
Averages and records for this station are not official NWS values.
T = Trace of Precipitation, MM = Missing Value Source: NWS Daily Summary

Daily Weather History Graph

Daily Weather History Graph

Search for Another Location

Airport or City:

Trip Planner

Search our weather history database for the weather conditions in past years. The results will help you decide how hot, cold, wet, or windy it might be!

Date:

Astronomy

Oct. 24, 2013 Rise Set
Actual Time 8:01 AM EDT 6:41 PM EDT
Civil Twilight 7:32 AM EDT 7:10 PM EDT
Nautical Twilight 6:59 AM EDT 7:42 PM EDT
Astronomical Twilight 6:27 AM EDT 8:15 PM EDT
Moon 11:02 PM EDT (10/24) 1:05 PM EDT (10/24)
Length of Visible Light 11h 37m
Length of Day
10h 39m
Waning Gibbous, 71% of the Moon is Illuminated
Oct 24
Waning Gibbous
Oct 26
Last Quarter
Nov 3
New
Nov 10
First Quarter
Nov 17
Full

Hourly Weather History & Observations

Time (EDT) Temp. Windchill Dew Point Humidity Pressure Visibility Wind Dir Wind Speed Gust Speed Precip Events Conditions
12:14 AM 32.9 °F - 30.0 °F 89% 29.93 in 10.0 mi Calm Calm - N/A   Clear
12:33 AM 33.3 °F 28.9 °F 30.2 °F 89% 29.93 in 10.0 mi West 4.6 mph - N/A   Scattered Clouds
12:54 AM 33.1 °F 28.7 °F 30.2 °F 89% 29.93 in 10.0 mi West 4.6 mph - N/A   Scattered Clouds
1:14 AM 32.9 °F 27.5 °F 30.2 °F 90% 29.93 in 10.0 mi SW 5.8 mph - N/A   Scattered Clouds
1:33 AM 32.9 °F 29.8 °F 30.2 °F 90% 29.93 in 10.0 mi WSW 3.5 mph - N/A   Scattered Clouds
1:54 AM 32.5 °F 27.1 °F 30.2 °F 91% 29.93 in 10.0 mi SW 5.8 mph - N/A   Clear
2:14 AM 32.7 °F 28.3 °F 30.6 °F 92% 29.93 in 10.0 mi WSW 4.6 mph - N/A   Clear
2:33 AM 32.5 °F 28.1 °F 30.4 °F 92% 29.93 in 10.0 mi SW 4.6 mph - N/A   Scattered Clouds
2:54 AM 32.5 °F 28.1 °F 30.6 °F 92% 29.94 in 10.0 mi West 4.6 mph - N/A   Mostly Cloudy
3:14 AM 32.7 °F 29.6 °F 30.7 °F 92% 29.94 in 10.0 mi West 3.5 mph - N/A   Overcast
3:33 AM 33.1 °F 30.0 °F 31.1 °F 92% 29.94 in 10.0 mi West 3.5 mph - N/A   Overcast
3:54 AM 33.6 °F 30.6 °F 31.6 °F 92% 29.93 in 10.0 mi WSW 3.5 mph - N/A   Overcast
4:14 AM 33.8 °F 29.6 °F 31.8 °F 92% 29.94 in 10.0 mi West 4.6 mph - N/A   Overcast
4:34 AM 34.0 °F 31.0 °F 32.0 °F 92% 29.94 in 10.0 mi WSW 3.5 mph - N/A   Overcast
4:54 AM 34.3 °F 31.4 °F 32.0 °F 91% 29.94 in 10.0 mi West 3.5 mph - N/A   Overcast
5:13 AM 34.7 °F 31.8 °F 32.0 °F 90% 29.94 in 10.0 mi WSW 3.5 mph - N/A   Overcast
5:34 AM 34.9 °F 32.0 °F 32.2 °F 90% 29.94 in 10.0 mi WSW 3.5 mph - N/A   Overcast
5:54 AM 34.9 °F 32.0 °F 32.0 °F 89% 29.94 in 10.0 mi WSW 3.5 mph - N/A   Overcast
6:13 AM 35.1 °F 32.2 °F 32.2 °F 89% 29.95 in 10.0 mi WSW 3.5 mph - N/A   Overcast
6:34 AM 35.2 °F 31.2 °F 32.4 °F 89% 29.95 in 10.0 mi West 4.6 mph - N/A   Overcast
6:54 AM 35.2 °F 30.3 °F 32.4 °F 89% 29.96 in 10.0 mi West 5.8 mph - N/A   Overcast
7:13 AM 35.2 °F 28.8 °F 32.4 °F 89% 29.96 in 10.0 mi West 8.1 mph - N/A   Overcast
7:34 AM 35.2 °F 29.5 °F 32.2 °F 89% 29.96 in 10.0 mi West 6.9 mph - N/A   Overcast
7:54 AM 35.2 °F 29.5 °F 32.2 °F 89% 29.97 in 10.0 mi West 6.9 mph - N/A   Overcast
8:13 AM 35.4 °F 30.5 °F 32.0 °F 87% 29.97 in 10.0 mi West 5.8 mph - N/A   Overcast
8:34 AM 35.2 °F 32.4 °F 32.0 °F 88% 29.98 in 10.0 mi West 3.5 mph - N/A   Overcast
8:54 AM 35.2 °F 30.3 °F 32.0 °F 88% 29.99 in 10.0 mi West 5.8 mph - N/A   Overcast
9:13 AM 35.6 °F 32.8 °F 32.4 °F 88% 30.00 in 10.0 mi West 3.5 mph - N/A   Overcast
9:34 AM 36.1 °F 32.3 °F 32.9 °F 88% 30.01 in 10.0 mi West 4.6 mph - N/A   Overcast
9:53 AM 36.5 °F 30.3 °F 32.9 °F 87% 30.01 in 10.0 mi West 8.1 mph - N/A   Overcast
10:14 AM 37.0 °F 34.5 °F 32.9 °F 85% 30.02 in 10.0 mi West 3.5 mph - N/A   Overcast
10:34 AM 38.3 °F 34.8 °F 33.1 °F 81% 30.02 in 10.0 mi WNW 4.6 mph - N/A   Overcast
10:53 AM 38.7 °F 32.9 °F 32.9 °F 80% 30.03 in 10.0 mi WNW 8.1 mph - N/A   Overcast
11:14 AM 39.4 °F 34.5 °F 32.0 °F 75% 30.03 in 10.0 mi West 6.9 mph - N/A   Mostly Cloudy
11:34 AM 41.2 °F 36.6 °F 31.1 °F 67% 30.03 in 10.0 mi WNW 6.9 mph - N/A   Scattered Clouds
11:53 AM 42.4 °F 36.1 °F 30.7 °F 63% 30.03 in 10.0 mi West 11.5 mph - N/A   Mostly Cloudy
12:14 PM 42.3 °F 36.3 °F 30.6 °F 63% 30.03 in 10.0 mi West 10.4 mph - N/A   Mostly Cloudy
12:34 PM 43.0 °F 37.2 °F 28.8 °F 57% 30.03 in 10.0 mi WNW 10.4 mph 16.1 mph N/A   Overcast
12:54 PM 43.7 °F 38.6 °F 27.3 °F 53% 30.03 in 10.0 mi West 9.2 mph - N/A   Overcast
1:14 PM 43.0 °F 37.2 °F 27.5 °F 54% 30.03 in 10.0 mi NW 10.4 mph - N/A   Overcast
1:33 PM 43.2 °F 37.0 °F 26.4 °F 52% 30.03 in 10.0 mi WNW 11.5 mph - N/A   Mostly Cloudy
1:54 PM 44.6 °F 41.4 °F 25.9 °F 48% 30.03 in 10.0 mi NW 5.8 mph - N/A   Mostly Cloudy
2:14 PM 44.8 °F 39.4 °F 26.6 °F 49% 30.03 in 10.0 mi WNW 10.4 mph 17.3 mph N/A   Mostly Cloudy
2:34 PM 46.4 °F 40.7 °F 26.6 °F 46% 30.03 in 10.0 mi West 12.7 mph 18.4 mph N/A   Overcast
2:54 PM 46.4 °F 41.1 °F 27.0 °F 47% 30.03 in 10.0 mi West 11.5 mph - N/A   Scattered Clouds
3:13 PM 47.3 °F - 27.9 °F 47% 30.03 in 10.0 mi West 10.4 mph - N/A   Mostly Cloudy
3:34 PM 41.4 °F 34.7 °F 32.9 °F 72% 30.05 in 10.0 mi West 11.5 mph 17.3 mph N/A Rain Light Rain
3:54 PM 39.9 °F 33.4 °F 32.9 °F 76% 30.06 in 10.0 mi West 10.4 mph - N/A   Scattered Clouds
4:13 PM 41.2 °F 34.5 °F 32.2 °F 70% 30.06 in 10.0 mi West 11.5 mph 17.3 mph N/A   Mostly Cloudy
4:34 PM 39.2 °F 34.2 °F 32.2 °F 76% 30.07 in 10.0 mi WSW 6.9 mph - N/A   Mostly Cloudy
4:54 PM 40.3 °F 35.5 °F 32.5 °F 74% 30.07 in 10.0 mi SW 6.9 mph - N/A   Scattered Clouds
5:13 PM 41.7 °F 37.3 °F 34.0 °F 74% 30.07 in 10.0 mi WSW 6.9 mph - N/A   Scattered Clouds
5:34 PM 41.4 °F 36.2 °F 33.3 °F 73% 30.08 in 10.0 mi West 8.1 mph - N/A   Overcast
5:54 PM 40.3 °F 33.4 °F 32.5 °F 74% 30.09 in 10.0 mi West 11.5 mph - N/A   Overcast
6:13 PM 38.8 °F 33.2 °F 32.5 °F 78% 30.10 in 10.0 mi West 8.1 mph - N/A   Overcast
6:34 PM 37.6 °F 32.3 °F 32.9 °F 83% 30.11 in 10.0 mi West 6.9 mph - N/A   Scattered Clouds
6:53 PM 36.9 °F 32.2 °F 32.7 °F 85% 30.11 in 10.0 mi West 5.8 mph - N/A   Scattered Clouds
7:14 PM 37.0 °F 31.6 °F 32.5 °F 84% 30.12 in 10.0 mi West 6.9 mph - N/A   Scattered Clouds
7:34 PM 36.9 °F - 32.5 °F 84% 30.13 in 10.0 mi Calm Calm - N/A   Clear
7:53 PM 36.1 °F 32.3 °F 32.4 °F 86% 30.13 in 10.0 mi West 4.6 mph - N/A   Clear
8:14 PM 36.0 °F 30.3 °F 32.5 °F 87% 30.14 in 10.0 mi West 6.9 mph - N/A   Clear
8:34 PM 35.6 °F 30.7 °F 32.2 °F 87% 30.14 in 10.0 mi West 5.8 mph - N/A   Clear
8:53 PM 35.2 °F 31.2 °F 32.0 °F 88% 30.14 in 10.0 mi West 4.6 mph - N/A   Clear
9:14 PM 34.9 °F 30.8 °F 31.8 °F 89% 30.14 in 10.0 mi West 4.6 mph - N/A   Clear
9:34 PM 34.7 °F 29.6 °F 31.8 °F 89% 30.15 in 10.0 mi West 5.8 mph - N/A   Clear
9:53 PM 34.2 °F 29.0 °F 31.6 °F 90% 30.15 in 10.0 mi West 5.8 mph - N/A   Clear
10:14 PM 34.0 °F 31.0 °F 31.8 °F 92% 30.16 in 10.0 mi West 3.5 mph - N/A   Clear
10:34 PM 33.8 °F 29.6 °F 31.6 °F 92% 30.16 in 10.0 mi West 4.6 mph - N/A   Clear
10:53 PM 33.8 °F 30.8 °F 31.6 °F 92% 30.16 in 10.0 mi West 3.5 mph - N/A   Clear
11:14 PM 33.4 °F 29.1 °F 31.5 °F 92% 30.18 in 10.0 mi West 4.6 mph - N/A   Clear
11:33 PM 33.3 °F - 31.3 °F 92% 30.18 in 10.0 mi Calm Calm - N/A   Clear
11:54 PM 33.1 °F 27.7 °F 31.1 °F 92% 30.18 in 10.0 mi West 5.8 mph - N/A   Clear